Year,Month,Day,Hour,Minute,Value (Times are PST for temperature in C)
2015,07,05,00,00,17.40
2015,07,05,00,01,17.40
2015,07,05,00,02,17.30
2015,07,05,00,03,17.30
2015,07,05,00,04,17.20
2015,07,05,00,05,17.20
2015,07,05,00,06,17.20
2015,07,05,00,07,17.20
2015,07,05,00,08,17.20
2015,07,05,00,09,17.20
2015,07,05,00,10,17.10
2015,07,05,00,11,17.00
2015,07,05,00,12,16.90
2015,07,05,00,13,16.90
2015,07,05,00,14,16.80
2015,07,05,00,15,16.80
2015,07,05,00,16,16.80
2015,07,05,00,17,16.70
2015,07,05,00,18,16.70
2015,07,05,00,19,16.70
2015,07,05,00,20,16.70
2015,07,05,00,21,16.70
2015,07,05,00,22,16.60
2015,07,05,00,23,16.60
2015,07,05,00,24,16.60
2015,07,05,00,25,16.60
2015,07,05,00,26,16.50
2015,07,05,00,27,16.50
2015,07,05,00,28,16.50
2015,07,05,00,29,16.40
2015,07,05,00,30,16.40
2015,07,05,00,31,16.40
2015,07,05,00,32,16.30
2015,07,05,00,33,16.30
2015,07,05,00,34,16.30
2015,07,05,00,35,16.20
2015,07,05,00,36,16.20
2015,07,05,00,37,16.20
2015,07,05,00,38,16.10
2015,07,05,00,39,16.10
2015,07,05,00,40,16.10
2015,07,05,00,41,16.00
2015,07,05,00,42,16.00
2015,07,05,00,43,16.00
2015,07,05,00,44,15.90
2015,07,05,00,45,15.90
2015,07,05,00,46,15.90
2015,07,05,00,47,15.90
2015,07,05,00,48,15.80
2015,07,05,00,49,15.90
2015,07,05,00,50,15.90
2015,07,05,00,51,15.80
2015,07,05,00,52,15.80
2015,07,05,00,53,15.80
2015,07,05,00,54,15.80
2015,07,05,00,55,15.80
2015,07,05,00,56,15.80
2015,07,05,00,57,15.80
2015,07,05,00,58,15.70
2015,07,05,00,59,15.70
2015,07,05,01,00,15.70
2015,07,05,01,01,15.70
2015,07,05,01,02,15.70
2015,07,05,01,03,15.70
2015,07,05,01,04,15.70
2015,07,05,01,05,15.70
2015,07,05,01,06,15.70
2015,07,05,01,07,15.70
2015,07,05,01,08,15.70
2015,07,05,01,09,15.70
2015,07,05,01,10,15.70
2015,07,05,01,11,15.70
2015,07,05,01,12,15.70
2015,07,05,01,13,15.70
2015,07,05,01,14,15.70
2015,07,05,01,15,15.70
2015,07,05,01,16,15.70
2015,07,05,01,17,15.70
2015,07,05,01,18,15.70
2015,07,05,01,19,15.70
2015,07,05,01,20,15.70
2015,07,05,01,21,15.80
2015,07,05,01,22,15.80
2015,07,05,01,23,15.80
2015,07,05,01,24,15.80
2015,07,05,01,25,15.80
2015,07,05,01,26,15.80
2015,07,05,01,27,15.80
2015,07,05,01,28,15.90
2015,07,05,01,29,15.90
2015,07,05,01,30,15.90
2015,07,05,01,31,15.90
2015,07,05,01,32,15.90
2015,07,05,01,33,15.90
2015,07,05,01,34,15.90
2015,07,05,01,35,15.90
2015,07,05,01,36,15.90
2015,07,05,01,37,15.90
2015,07,05,01,38,15.90
2015,07,05,01,39,15.90
2015,07,05,01,40,15.90
2015,07,05,01,41,15.90
2015,07,05,01,42,15.90
2015,07,05,01,43,15.90
2015,07,05,01,44,15.90
2015,07,05,01,45,15.90
2015,07,05,01,46,15.90
2015,07,05,01,47,15.90
2015,07,05,01,48,15.90
2015,07,05,01,49,15.90
2015,07,05,01,50,15.90
2015,07,05,01,51,15.90
2015,07,05,01,52,15.90
2015,07,05,01,53,15.90
2015,07,05,01,54,15.90
2015,07,05,01,55,16.00
2015,07,05,01,56,16.00
2015,07,05,01,57,16.00
2015,07,05,01,58,16.00
2015,07,05,01,59,16.00
2015,07,05,02,00,16.00
2015,07,05,02,01,16.00
2015,07,05,02,02,16.00
2015,07,05,02,03,16.00
2015,07,05,02,04,16.00
2015,07,05,02,05,16.00
2015,07,05,02,06,16.00
2015,07,05,02,07,16.00
2015,07,05,02,08,15.90
2015,07,05,02,09,15.90
2015,07,05,02,10,15.90
2015,07,05,02,11,15.90
2015,07,05,02,12,15.90
2015,07,05,02,13,15.90
2015,07,05,02,14,15.90
2015,07,05,02,15,15.90
2015,07,05,02,16,15.90
2015,07,05,02,17,15.90
2015,07,05,02,18,15.90
2015,07,05,02,19,15.90
2015,07,05,02,20,15.90
2015,07,05,02,21,15.90
2015,07,05,02,22,15.90
2015,07,05,02,23,15.90
2015,07,05,02,24,15.90
2015,07,05,02,25,15.90
2015,07,05,02,26,15.90
2015,07,05,02,27,15.90
2015,07,05,02,28,15.90
2015,07,05,02,29,15.90
2015,07,05,02,30,15.90
2015,07,05,02,31,15.90
2015,07,05,02,32,15.90
2015,07,05,02,33,15.90
2015,07,05,02,34,15.90
2015,07,05,02,35,15.90
2015,07,05,02,36,15.90
2015,07,05,02,37,15.90
2015,07,05,02,38,15.90
2015,07,05,02,39,15.90
2015,07,05,02,40,15.90
2015,07,05,02,41,15.90
2015,07,05,02,42,15.80
2015,07,05,02,43,15.80
2015,07,05,02,44,15.80
2015,07,05,02,45,15.80
2015,07,05,02,46,15.80
2015,07,05,02,47,15.80
2015,07,05,02,48,15.80
2015,07,05,02,49,15.80
2015,07,05,02,50,15.80
2015,07,05,02,51,15.80
2015,07,05,02,52,15.80
2015,07,05,02,53,15.80
2015,07,05,02,54,15.80
2015,07,05,02,55,15.80
2015,07,05,02,56,15.80
2015,07,05,02,57,15.80
2015,07,05,02,58,15.80
2015,07,05,02,59,15.80
2015,07,05,03,00,15.80
2015,07,05,03,01,15.80
2015,07,05,03,02,15.80
2015,07,05,03,03,15.80
2015,07,05,03,04,15.70
2015,07,05,03,05,15.70
2015,07,05,03,06,15.70
2015,07,05,03,07,15.70
2015,07,05,03,08,15.70
2015,07,05,03,09,15.70
2015,07,05,03,10,15.70
2015,07,05,03,11,15.70
2015,07,05,03,12,15.70
2015,07,05,03,13,15.70
2015,07,05,03,14,15.70
2015,07,05,03,15,15.70
2015,07,05,03,16,15.70
2015,07,05,03,17,15.70
2015,07,05,03,18,15.70
2015,07,05,03,19,15.70
2015,07,05,03,20,15.70
2015,07,05,03,21,15.70
2015,07,05,03,22,15.70
2015,07,05,03,23,15.70
2015,07,05,03,24,15.70
2015,07,05,03,25,15.70
2015,07,05,03,26,15.70
2015,07,05,03,27,15.80
2015,07,05,03,28,15.80
2015,07,05,03,29,15.90
2015,07,05,03,30,15.90
2015,07,05,03,31,16.00
2015,07,05,03,32,16.00
2015,07,05,03,33,16.10
2015,07,05,03,34,16.10
2015,07,05,03,35,16.10
2015,07,05,03,36,16.20
2015,07,05,03,37,16.20
2015,07,05,03,38,16.20
2015,07,05,03,39,16.30
2015,07,05,03,40,16.30
2015,07,05,03,41,16.30
2015,07,05,03,42,16.30
2015,07,05,03,43,16.30
2015,07,05,03,44,16.30
2015,07,05,03,45,16.40
2015,07,05,03,46,16.40
2015,07,05,03,47,16.40
2015,07,05,03,48,16.40
2015,07,05,03,49,16.40
2015,07,05,03,50,16.40
2015,07,05,03,51,16.30
2015,07,05,03,52,16.30
2015,07,05,03,53,16.40
2015,07,05,03,54,16.40
2015,07,05,03,55,16.40
2015,07,05,03,56,16.40
2015,07,05,03,57,16.40
2015,07,05,03,58,16.40
2015,07,05,03,59,16.40
2015,07,05,04,00,16.40
2015,07,05,04,01,16.40
2015,07,05,04,02,16.40
2015,07,05,04,03,16.40
2015,07,05,04,04,16.40
2015,07,05,04,05,16.40
2015,07,05,04,06,16.40
2015,07,05,04,07,16.40
2015,07,05,04,08,16.50
2015,07,05,04,09,16.50
2015,07,05,04,10,16.60
2015,07,05,04,11,16.60
2015,07,05,04,12,16.60
2015,07,05,04,13,16.60
2015,07,05,04,14,16.50
2015,07,05,04,15,16.50
2015,07,05,04,16,16.50
2015,07,05,04,17,16.50
2015,07,05,04,18,16.40
2015,07,05,04,19,16.40
2015,07,05,04,20,16.40
2015,07,05,04,21,16.40
2015,07,05,04,22,16.30
2015,07,05,04,23,16.30
2015,07,05,04,24,16.20
2015,07,05,04,25,16.20
2015,07,05,04,26,16.20
2015,07,05,04,27,16.20
2015,07,05,04,28,16.20
2015,07,05,04,29,16.20
2015,07,05,04,30,16.20
2015,07,05,04,31,16.20
2015,07,05,04,32,16.20
2015,07,05,04,33,16.20
2015,07,05,04,34,16.20
2015,07,05,04,35,16.20
2015,07,05,04,36,16.20
2015,07,05,04,37,16.10
2015,07,05,04,38,16.10
2015,07,05,04,39,16.10
2015,07,05,04,40,16.10
2015,07,05,04,41,16.00
2015,07,05,04,42,15.90
2015,07,05,04,43,15.90
2015,07,05,04,44,15.80
2015,07,05,04,45,15.70
2015,07,05,04,46,15.70
2015,07,05,04,47,15.60
2015,07,05,04,48,15.50
2015,07,05,04,49,15.50
2015,07,05,04,50,15.40
2015,07,05,04,51,15.30
2015,07,05,04,52,15.30
2015,07,05,04,53,15.20
2015,07,05,04,54,15.20
2015,07,05,04,55,15.20
2015,07,05,04,56,15.10
2015,07,05,04,57,15.10
2015,07,05,04,58,15.10
2015,07,05,04,59,15.00
2015,07,05,05,00,15.00
2015,07,05,05,01,15.00
2015,07,05,05,02,14.90
2015,07,05,05,03,14.90
2015,07,05,05,04,14.90
2015,07,05,05,05,14.90
2015,07,05,05,06,14.80
2015,07,05,05,07,14.80
2015,07,05,05,08,14.80
2015,07,05,05,09,14.80
2015,07,05,05,10,14.80
2015,07,05,05,11,14.80
2015,07,05,05,12,14.80
2015,07,05,05,13,14.80
2015,07,05,05,14,14.80
2015,07,05,05,15,14.80
2015,07,05,05,16,14.80
2015,07,05,05,17,14.80
2015,07,05,05,18,14.80
2015,07,05,05,19,14.80
2015,07,05,05,20,14.80
2015,07,05,05,21,14.80
2015,07,05,05,22,14.70
2015,07,05,05,23,14.70
2015,07,05,05,24,14.70
2015,07,05,05,25,14.70
2015,07,05,05,26,14.70
2015,07,05,05,27,14.70
2015,07,05,05,28,14.70
2015,07,05,05,29,14.70
2015,07,05,05,30,14.70
2015,07,05,05,31,14.70
2015,07,05,05,32,14.70
2015,07,05,05,33,14.70
2015,07,05,05,34,14.70
2015,07,05,05,35,14.70
2015,07,05,05,36,14.70
2015,07,05,05,37,14.70
2015,07,05,05,38,14.70
2015,07,05,05,39,14.70
2015,07,05,05,40,14.70
2015,07,05,05,41,14.70
2015,07,05,05,42,14.60
2015,07,05,05,43,14.60
2015,07,05,05,44,14.60
2015,07,05,05,45,14.60
2015,07,05,05,46,14.60
2015,07,05,05,47,14.60
2015,07,05,05,48,14.60
2015,07,05,05,49,14.60
2015,07,05,05,50,14.60
2015,07,05,05,51,14.60
2015,07,05,05,52,14.60
2015,07,05,05,53,14.50
2015,07,05,05,54,14.50
2015,07,05,05,55,14.50
2015,07,05,05,56,14.50
2015,07,05,05,57,14.50
2015,07,05,05,58,14.50
2015,07,05,05,59,14.50
2015,07,05,06,00,14.50
2015,07,05,06,01,14.50
2015,07,05,06,02,14.50
2015,07,05,06,03,14.50
2015,07,05,06,04,14.60
2015,07,05,06,05,14.60
2015,07,05,06,06,14.60
2015,07,05,06,07,14.60
2015,07,05,06,08,14.60
2015,07,05,06,09,14.70
2015,07,05,06,10,14.70
2015,07,05,06,11,14.70
2015,07,05,06,12,14.80
2015,07,05,06,13,14.80
2015,07,05,06,14,14.90
2015,07,05,06,15,15.00
2015,07,05,06,16,15.00
2015,07,05,06,17,15.10
2015,07,05,06,18,15.10
2015,07,05,06,19,15.20
2015,07,05,06,20,15.20
2015,07,05,06,21,15.30
2015,07,05,06,22,15.30
2015,07,05,06,23,15.40
2015,07,05,06,24,15.40
2015,07,05,06,25,15.40
2015,07,05,06,26,15.40
2015,07,05,06,27,15.40
2015,07,05,06,28,15.50
2015,07,05,06,29,15.50
2015,07,05,06,30,15.60
2015,07,05,06,31,15.70
2015,07,05,06,32,15.70
2015,07,05,06,33,15.70
2015,07,05,06,34,15.80
2015,07,05,06,35,15.80
2015,07,05,06,36,15.90
2015,07,05,06,37,15.90
2015,07,05,06,38,15.90
2015,07,05,06,39,16.00
2015,07,05,06,40,16.00
2015,07,05,06,41,16.10
2015,07,05,06,42,16.20
2015,07,05,06,43,16.20
2015,07,05,06,44,16.30
2015,07,05,06,45,16.30
2015,07,05,06,46,16.40
2015,07,05,06,47,16.40
2015,07,05,06,48,16.50
2015,07,05,06,49,16.60
2015,07,05,06,50,16.60
2015,07,05,06,51,16.60
2015,07,05,06,52,16.70
2015,07,05,06,53,16.80
2015,07,05,06,54,16.80
2015,07,05,06,55,16.90
2015,07,05,06,56,16.90
2015,07,05,06,57,17.00
2015,07,05,06,58,17.10
2015,07,05,06,59,17.10
2015,07,05,07,00,17.10
2015,07,05,07,01,17.10
2015,07,05,07,02,17.20
2015,07,05,07,03,17.20
2015,07,05,07,04,17.30
2015,07,05,07,05,17.30
2015,07,05,07,06,17.30
2015,07,05,07,07,17.40
2015,07,05,07,08,17.40
2015,07,05,07,09,17.40
2015,07,05,07,10,17.40
2015,07,05,07,11,17.50
2015,07,05,07,12,17.50
2015,07,05,07,13,17.60
2015,07,05,07,14,17.70
2015,07,05,07,15,17.70
2015,07,05,07,16,17.70
2015,07,05,07,17,17.80
2015,07,05,07,18,17.80
2015,07,05,07,19,17.80
2015,07,05,07,20,17.80
2015,07,05,07,21,17.90
2015,07,05,07,22,17.90
2015,07,05,07,23,17.90
2015,07,05,07,24,17.90
2015,07,05,07,25,18.00
2015,07,05,07,26,18.00
2015,07,05,07,27,18.00
2015,07,05,07,28,18.10
2015,07,05,07,29,18.10
2015,07,05,07,30,18.20
2015,07,05,07,31,18.20
2015,07,05,07,32,18.20
2015,07,05,07,33,18.20
2015,07,05,07,34,18.20
2015,07,05,07,35,18.30
2015,07,05,07,36,18.30
2015,07,05,07,37,18.30
2015,07,05,07,38,18.30
2015,07,05,07,39,18.30
2015,07,05,07,40,18.30
2015,07,05,07,41,18.40
2015,07,05,07,42,18.40
2015,07,05,07,43,18.40
2015,07,05,07,44,18.50
2015,07,05,07,45,18.50
2015,07,05,07,46,18.50
2015,07,05,07,47,18.60
2015,07,05,07,48,18.60
2015,07,05,07,49,18.60
2015,07,05,07,50,18.70
2015,07,05,07,51,18.70
2015,07,05,07,52,18.80
2015,07,05,07,53,18.80
2015,07,05,07,54,18.80
2015,07,05,07,55,18.90
2015,07,05,07,56,18.90
2015,07,05,07,57,18.90
2015,07,05,07,58,19.00
2015,07,05,07,59,19.10
2015,07,05,08,00,19.10
2015,07,05,08,01,19.20
2015,07,05,08,02,19.30
2015,07,05,08,03,19.30
2015,07,05,08,04,19.40
2015,07,05,08,05,19.50
2015,07,05,08,06,19.60
2015,07,05,08,07,19.60
2015,07,05,08,08,19.70
2015,07,05,08,09,19.80
2015,07,05,08,10,19.80
2015,07,05,08,11,19.90
2015,07,05,08,12,19.90
2015,07,05,08,13,20.00
2015,07,05,08,14,20.00
2015,07,05,08,15,20.10
2015,07,05,08,16,20.20
2015,07,05,08,17,20.30
2015,07,05,08,18,20.40
2015,07,05,08,19,20.40
2015,07,05,08,20,20.50
2015,07,05,08,21,20.60
2015,07,05,08,22,20.60
2015,07,05,08,23,20.70
2015,07,05,08,24,20.80
2015,07,05,08,25,20.90
2015,07,05,08,26,20.90
2015,07,05,08,27,21.00
2015,07,05,08,28,21.00
2015,07,05,08,29,21.00
2015,07,05,08,30,21.10
2015,07,05,08,31,21.10
2015,07,05,08,32,21.10
2015,07,05,08,33,21.20
2015,07,05,08,34,21.20
2015,07,05,08,35,21.20
2015,07,05,08,36,21.30
2015,07,05,08,37,21.30
2015,07,05,08,38,21.40
2015,07,05,08,39,21.50
2015,07,05,08,40,21.60
2015,07,05,08,41,21.60
2015,07,05,08,42,21.70
2015,07,05,08,43,21.70
2015,07,05,08,44,21.80
2015,07,05,08,45,21.80
2015,07,05,08,46,21.90
2015,07,05,08,47,21.90
2015,07,05,08,48,21.90
2015,07,05,08,49,21.90
2015,07,05,08,50,21.90
2015,07,05,08,51,21.90
2015,07,05,08,52,21.90
2015,07,05,08,53,21.90
2015,07,05,08,54,21.90
2015,07,05,08,55,21.90
2015,07,05,08,56,21.80
2015,07,05,08,57,21.80
2015,07,05,08,58,21.80
2015,07,05,08,59,21.80
2015,07,05,09,00,21.90
2015,07,05,09,01,21.90
2015,07,05,09,02,21.90
2015,07,05,09,03,21.90
2015,07,05,09,04,22.00
2015,07,05,09,05,22.00
2015,07,05,09,06,22.10
2015,07,05,09,07,22.10
2015,07,05,09,08,22.10
2015,07,05,09,09,22.20
2015,07,05,09,10,22.20
2015,07,05,09,11,22.20
2015,07,05,09,12,22.20
2015,07,05,09,13,22.20
2015,07,05,09,14,22.30
2015,07,05,09,15,22.30
2015,07,05,09,16,22.30
2015,07,05,09,17,22.30
2015,07,05,09,18,22.40
2015,07,05,09,19,22.40
2015,07,05,09,20,22.50
2015,07,05,09,21,22.50
2015,07,05,09,22,22.60
2015,07,05,09,23,22.60
2015,07,05,09,24,22.70
2015,07,05,09,25,22.70
2015,07,05,09,26,22.80
2015,07,05,09,27,22.90
2015,07,05,09,28,22.90
2015,07,05,09,29,22.90
2015,07,05,09,30,23.00
2015,07,05,09,31,23.00
2015,07,05,09,32,23.10
2015,07,05,09,33,23.10
2015,07,05,09,34,23.10
2015,07,05,09,35,23.10
2015,07,05,09,36,23.10
2015,07,05,09,37,23.10
2015,07,05,09,38,23.20
2015,07,05,09,39,23.20
2015,07,05,09,40,23.20
2015,07,05,09,41,23.30
2015,07,05,09,42,23.30
2015,07,05,09,43,23.30
2015,07,05,09,44,23.30
2015,07,05,09,45,23.30
2015,07,05,09,46,23.40
2015,07,05,09,47,23.40
2015,07,05,09,48,23.40
2015,07,05,09,49,23.40
2015,07,05,09,50,23.50
2015,07,05,09,51,23.50
2015,07,05,09,52,23.60
2015,07,05,09,53,23.60
2015,07,05,09,54,23.60
2015,07,05,09,55,23.60
2015,07,05,09,56,23.60
2015,07,05,09,57,23.60
2015,07,05,09,58,23.60
2015,07,05,09,59,23.60
2015,07,05,10,00,23.60
2015,07,05,10,01,23.70
2015,07,05,10,02,23.70
2015,07,05,10,03,23.70
2015,07,05,10,04,23.70
2015,07,05,10,05,23.70
2015,07,05,10,06,23.80
2015,07,05,10,07,23.80
2015,07,05,10,08,23.80
2015,07,05,10,09,23.80
2015,07,05,10,10,23.80
2015,07,05,10,11,23.90
2015,07,05,10,12,23.90
2015,07,05,10,13,24.00
2015,07,05,10,14,24.00
2015,07,05,10,15,24.10
2015,07,05,10,16,24.10
2015,07,05,10,17,24.20
2015,07,05,10,18,24.20
2015,07,05,10,19,24.20
2015,07,05,10,20,24.20
2015,07,05,10,21,24.30
2015,07,05,10,22,24.30
2015,07,05,10,23,24.30
2015,07,05,10,24,24.30
2015,07,05,10,25,24.40
2015,07,05,10,26,24.40
2015,07,05,10,27,24.40
2015,07,05,10,28,24.50
2015,07,05,10,29,24.50
2015,07,05,10,30,24.50
2015,07,05,10,31,24.60
2015,07,05,10,32,24.60
2015,07,05,10,33,24.60
2015,07,05,10,34,24.60
2015,07,05,10,35,24.60
2015,07,05,10,36,24.60
2015,07,05,10,37,24.60
2015,07,05,10,38,24.50
2015,07,05,10,39,24.50
2015,07,05,10,40,24.40
2015,07,05,10,41,24.40
2015,07,05,10,42,24.30
2015,07,05,10,43,24.30
2015,07,05,10,44,24.20
2015,07,05,10,45,24.20
2015,07,05,10,46,24.10
2015,07,05,10,47,24.10
2015,07,05,10,48,24.10
2015,07,05,10,49,24.10
2015,07,05,10,50,24.10
2015,07,05,10,51,24.10
2015,07,05,10,52,24.10
2015,07,05,10,53,24.10
2015,07,05,10,54,24.10
2015,07,05,10,55,24.10
2015,07,05,10,56,24.10
2015,07,05,10,57,24.10
2015,07,05,10,58,24.10
2015,07,05,10,59,24.10
2015,07,05,11,00,24.00
2015,07,05,11,01,24.00
2015,07,05,11,02,23.90
2015,07,05,11,03,23.90
2015,07,05,11,04,23.90
2015,07,05,11,05,23.80
2015,07,05,11,06,23.80
2015,07,05,11,07,23.80
2015,07,05,11,08,23.80
2015,07,05,11,09,23.80
2015,07,05,11,10,23.90
2015,07,05,11,11,23.90
2015,07,05,11,12,24.00
2015,07,05,11,13,24.10
2015,07,05,11,14,24.20
2015,07,05,11,15,24.30
2015,07,05,11,16,24.40
2015,07,05,11,17,24.50
2015,07,05,11,18,24.60
2015,07,05,11,19,24.70
2015,07,05,11,20,24.70
2015,07,05,11,21,24.80
2015,07,05,11,22,24.80
2015,07,05,11,23,24.80
2015,07,05,11,24,24.90
2015,07,05,11,25,24.90
2015,07,05,11,26,24.90
2015,07,05,11,27,25.00
2015,07,05,11,28,25.00
2015,07,05,11,29,25.00
2015,07,05,11,30,25.10
2015,07,05,11,31,25.10
2015,07,05,11,32,25.10
2015,07,05,11,33,25.10
2015,07,05,11,34,25.10
2015,07,05,11,35,25.00
2015,07,05,11,36,25.00
2015,07,05,11,37,24.90
2015,07,05,11,38,24.80
2015,07,05,11,39,24.80
2015,07,05,11,40,24.60
2015,07,05,11,41,24.50
2015,07,05,11,42,24.50
2015,07,05,11,43,24.40
2015,07,05,11,44,24.40
2015,07,05,11,45,24.30
2015,07,05,11,46,24.30
2015,07,05,11,47,24.30
2015,07,05,11,48,24.40
2015,07,05,11,49,24.40
2015,07,05,11,50,24.40
2015,07,05,11,51,24.40
2015,07,05,11,52,24.40
2015,07,05,11,53,24.40
2015,07,05,11,54,24.40
2015,07,05,11,55,24.30
2015,07,05,11,56,24.20
2015,07,05,11,57,24.00
2015,07,05,11,58,23.90
2015,07,05,11,59,23.80
2015,07,05,12,00,23.70
2015,07,05,12,01,23.70
2015,07,05,12,02,23.60
2015,07,05,12,03,23.60
2015,07,05,12,04,23.50
2015,07,05,12,05,23.50
2015,07,05,12,06,23.40
2015,07,05,12,07,23.40
2015,07,05,12,08,23.40
2015,07,05,12,09,23.50
2015,07,05,12,10,23.50
2015,07,05,12,11,23.50
2015,07,05,12,12,23.60
2015,07,05,12,13,23.60
2015,07,05,12,14,23.70
2015,07,05,12,15,23.70
2015,07,05,12,16,23.70
2015,07,05,12,17,23.80
2015,07,05,12,18,23.80
2015,07,05,12,19,23.80
2015,07,05,12,20,23.80
2015,07,05,12,21,23.70
2015,07,05,12,22,23.70
2015,07,05,12,23,23.70
2015,07,05,12,24,23.70
2015,07,05,12,25,23.70
2015,07,05,12,26,23.60
2015,07,05,12,27,23.60
2015,07,05,12,28,23.70
2015,07,05,12,29,23.70
2015,07,05,12,30,23.70
2015,07,05,12,31,23.70
2015,07,05,12,32,23.80
2015,07,05,12,33,23.80
2015,07,05,12,34,23.80
2015,07,05,12,35,23.80
2015,07,05,12,36,23.90
2015,07,05,12,37,23.90
2015,07,05,12,38,23.90
2015,07,05,12,39,24.00
2015,07,05,12,40,24.00
2015,07,05,12,41,24.10
2015,07,05,12,42,24.20
2015,07,05,12,43,24.30
2015,07,05,12,44,24.30
2015,07,05,12,45,24.40
2015,07,05,12,46,24.50
2015,07,05,12,47,24.60
2015,07,05,12,48,24.60
2015,07,05,12,49,24.70
2015,07,05,12,50,24.70
2015,07,05,12,51,24.70
2015,07,05,12,52,24.70
2015,07,05,12,53,24.80
2015,07,05,12,54,24.80
2015,07,05,12,55,24.80
2015,07,05,12,56,24.90
2015,07,05,12,57,24.90
2015,07,05,12,58,24.90
2015,07,05,12,59,25.00
2015,07,05,13,00,25.10
2015,07,05,13,01,25.10
2015,07,05,13,02,25.20
2015,07,05,13,03,25.30
2015,07,05,13,04,25.40
2015,07,05,13,05,25.40
2015,07,05,13,06,25.40
2015,07,05,13,07,25.40
2015,07,05,13,08,25.40
2015,07,05,13,09,25.40
2015,07,05,13,10,25.40
2015,07,05,13,11,25.40
2015,07,05,13,12,25.40
2015,07,05,13,13,25.50
2015,07,05,13,14,25.50
2015,07,05,13,15,25.60
2015,07,05,13,16,25.60
2015,07,05,13,17,25.60
2015,07,05,13,18,25.50
2015,07,05,13,19,25.50
2015,07,05,13,20,25.40
2015,07,05,13,21,25.40
2015,07,05,13,22,25.40
2015,07,05,13,23,25.50
2015,07,05,13,24,25.50
2015,07,05,13,25,25.50
2015,07,05,13,26,25.60
2015,07,05,13,27,25.70
2015,07,05,13,28,25.80
2015,07,05,13,29,25.90
2015,07,05,13,30,26.00
2015,07,05,13,31,26.00
2015,07,05,13,32,26.10
2015,07,05,13,33,26.20
2015,07,05,13,34,26.20
2015,07,05,13,35,26.30
2015,07,05,13,36,26.30
2015,07,05,13,37,26.30
2015,07,05,13,38,26.30
2015,07,05,13,39,26.20
2015,07,05,13,40,26.20
2015,07,05,13,41,26.20
2015,07,05,13,42,26.20
2015,07,05,13,43,26.10
2015,07,05,13,44,26.00
2015,07,05,13,45,25.90
2015,07,05,13,46,25.80
2015,07,05,13,47,25.80
2015,07,05,13,48,25.80
2015,07,05,13,49,25.90
2015,07,05,13,50,25.90
2015,07,05,13,51,25.90
2015,07,05,13,52,26.00
2015,07,05,13,53,26.10
2015,07,05,13,54,26.10
2015,07,05,13,55,26.20
2015,07,05,13,56,26.20
2015,07,05,13,57,26.30
2015,07,05,13,58,26.30
2015,07,05,13,59,26.40
2015,07,05,14,00,26.40
2015,07,05,14,01,26.50
2015,07,05,14,02,26.40
2015,07,05,14,03,26.50
2015,07,05,14,04,26.50
2015,07,05,14,05,26.50
2015,07,05,14,06,26.50
2015,07,05,14,07,26.50
2015,07,05,14,08,26.50
2015,07,05,14,09,26.60
2015,07,05,14,10,26.70
2015,07,05,14,11,26.80
2015,07,05,14,12,26.80
2015,07,05,14,13,26.80
2015,07,05,14,14,26.80
2015,07,05,14,15,26.70
2015,07,05,14,16,26.60
2015,07,05,14,17,26.60
2015,07,05,14,18,26.60
2015,07,05,14,19,26.60
2015,07,05,14,20,26.50
2015,07,05,14,21,26.60
2015,07,05,14,22,26.60
2015,07,05,14,23,26.70
2015,07,05,14,24,26.70
2015,07,05,14,25,26.70
2015,07,05,14,26,26.80
2015,07,05,14,27,26.80
2015,07,05,14,28,26.80
2015,07,05,14,29,26.80
2015,07,05,14,30,26.80
2015,07,05,14,31,26.80
2015,07,05,14,32,26.90
2015,07,05,14,33,27.00
2015,07,05,14,34,27.10
2015,07,05,14,35,27.20
2015,07,05,14,36,27.20
2015,07,05,14,37,27.20
2015,07,05,14,38,27.20
2015,07,05,14,39,27.20
2015,07,05,14,40,27.20
2015,07,05,14,41,27.20
2015,07,05,14,42,27.20
2015,07,05,14,43,27.20
2015,07,05,14,44,27.20
2015,07,05,14,45,27.20
2015,07,05,14,46,27.20
2015,07,05,14,47,27.30
2015,07,05,14,48,27.30
2015,07,05,14,49,27.30
2015,07,05,14,50,27.20
2015,07,05,14,51,27.10
2015,07,05,14,52,27.10
2015,07,05,14,53,27.10
2015,07,05,14,54,27.00
2015,07,05,14,55,27.00
2015,07,05,14,56,26.90
2015,07,05,14,57,26.80
2015,07,05,14,58,26.80
2015,07,05,14,59,26.80
2015,07,05,15,00,26.90
2015,07,05,15,01,26.90
2015,07,05,15,02,26.90
2015,07,05,15,03,26.90
2015,07,05,15,04,27.00
2015,07,05,15,05,27.00
2015,07,05,15,06,27.10
2015,07,05,15,07,27.20
2015,07,05,15,08,27.20
2015,07,05,15,09,27.30
2015,07,05,15,10,27.30
2015,07,05,15,11,27.40
2015,07,05,15,12,27.50
2015,07,05,15,13,27.60
2015,07,05,15,14,27.50
2015,07,05,15,15,27.30
2015,07,05,15,16,27.30
2015,07,05,15,17,27.20
2015,07,05,15,18,27.30
2015,07,05,15,19,27.30
2015,07,05,15,20,27.40
2015,07,05,15,21,27.40
2015,07,05,15,22,27.40
2015,07,05,15,23,27.50
2015,07,05,15,24,27.60
2015,07,05,15,25,27.60
2015,07,05,15,26,27.60
2015,07,05,15,27,27.60
2015,07,05,15,28,27.70
2015,07,05,15,29,27.70
2015,07,05,15,30,27.70
2015,07,05,15,31,27.80
2015,07,05,15,32,27.80
2015,07,05,15,33,27.70
2015,07,05,15,34,27.60
2015,07,05,15,35,27.50
2015,07,05,15,36,27.50
2015,07,05,15,37,27.50
2015,07,05,15,38,27.60
2015,07,05,15,39,27.60
2015,07,05,15,40,27.70
2015,07,05,15,41,27.70
2015,07,05,15,42,27.70
2015,07,05,15,43,27.70
2015,07,05,15,44,27.70
2015,07,05,15,45,27.70
2015,07,05,15,46,27.70
2015,07,05,15,47,27.60
2015,07,05,15,48,27.60
2015,07,05,15,49,27.60
2015,07,05,15,50,27.60
2015,07,05,15,51,27.60
2015,07,05,15,52,27.60
2015,07,05,15,53,27.60
2015,07,05,15,54,27.60
2015,07,05,15,55,27.70
2015,07,05,15,56,27.70
2015,07,05,15,57,27.60
2015,07,05,15,58,27.60
2015,07,05,15,59,27.60
2015,07,05,16,00,27.60
2015,07,05,16,01,27.60
2015,07,05,16,02,27.60
2015,07,05,16,03,27.60
2015,07,05,16,04,27.60
2015,07,05,16,05,27.60
2015,07,05,16,06,27.60
2015,07,05,16,07,27.60
2015,07,05,16,08,27.60
2015,07,05,16,09,27.50
2015,07,05,16,10,27.50
2015,07,05,16,11,27.40
2015,07,05,16,12,27.40
2015,07,05,16,13,27.30
2015,07,05,16,14,27.30
2015,07,05,16,15,27.30
2015,07,05,16,16,27.30
2015,07,05,16,17,27.30
2015,07,05,16,18,27.30
2015,07,05,16,19,27.20
2015,07,05,16,20,27.10
2015,07,05,16,21,27.00
2015,07,05,16,22,26.90
2015,07,05,16,23,26.80
2015,07,05,16,24,26.80
2015,07,05,16,25,26.80
2015,07,05,16,26,26.80
2015,07,05,16,27,26.80
2015,07,05,16,28,26.80
2015,07,05,16,29,26.90
2015,07,05,16,30,26.90
2015,07,05,16,31,26.90
2015,07,05,16,32,26.90
2015,07,05,16,33,26.90
2015,07,05,16,34,26.90
2015,07,05,16,35,26.90
2015,07,05,16,36,26.90
2015,07,05,16,37,26.90
2015,07,05,16,38,26.90
2015,07,05,16,39,26.90
2015,07,05,16,40,26.90
2015,07,05,16,41,26.80
2015,07,05,16,42,26.80
2015,07,05,16,43,26.70
2015,07,05,16,44,26.70
2015,07,05,16,45,26.70
2015,07,05,16,46,26.70
2015,07,05,16,47,26.70
2015,07,05,16,48,26.70
2015,07,05,16,49,26.70
2015,07,05,16,50,26.70
2015,07,05,16,51,26.70
2015,07,05,16,52,26.60
2015,07,05,16,53,26.60
2015,07,05,16,54,26.60
2015,07,05,16,55,26.60
2015,07,05,16,56,26.60
2015,07,05,16,57,26.60
2015,07,05,16,58,26.60
2015,07,05,16,59,26.60
2015,07,05,17,00,26.60
2015,07,05,17,01,26.60
2015,07,05,17,02,26.60
2015,07,05,17,03,26.60
2015,07,05,17,04,26.60
2015,07,05,17,05,26.60
2015,07,05,17,06,26.60
2015,07,05,17,07,26.50
2015,07,05,17,08,26.40
2015,07,05,17,09,26.40
2015,07,05,17,10,26.30
2015,07,05,17,11,26.30
2015,07,05,17,12,26.30
2015,07,05,17,13,26.30
2015,07,05,17,14,26.30
2015,07,05,17,15,26.30
2015,07,05,17,16,26.30
2015,07,05,17,17,26.30
2015,07,05,17,18,26.30
2015,07,05,17,19,26.30